Regional Weather Roundup
Issued by NWS

Home | Current Version | Previous Version | Text Only | Print | Product List | Glossary Off
Versions: 1 2 3 4 5 6 7 8 9 10 11 12 13 14 15 16 17 18 19 20 21 22 23 24 25 26 27 28 29 30 31 32 33 34 35 36 37 38 39 40 41 42 43 44 45 46 47 48 49 50

000
ASUS45 KCYS 070310
RWRWY

WYOMING REGIONAL WEATHER ROUNDUP
NATIONAL WEATHER SERVICE CHEYENNE WY
900 PM MDT WED MAY 06 2015

NOTE:  "FAIR" INDICATES FEW OR NO CLOUDS BELOW 12,000 FEET
WITH NO SIGNIFICANT WEATHER AND/OR OBSTRUCTIONS TO VISIBILITY.

WYZ001-070400-
YELLOWSTONE NATIONAL PARK

CITY           SKY/WX    TMP DP  RH WIND       PRES   REMARKS
LK YELLOWSTONE   N/A     38  33  82 VRB3      29.89R
W YELLOWSTONE  NOT AVBL

$$
WYZ002>013-054>058-071-098>099-070400-
NORTHERN WYOMING

CITY           SKY/WX    TMP DP  RH WIND       PRES   REMARKS
JACKSON        NOT AVBL
CODY           CLOUDY    46  30  53 N8G17     29.90R
GREYBULL       CLOUDY    51  44  77 NE8       29.83R
WORLAND        CLOUDY    50  37  61 N6        29.85R
SHERIDAN       CLOUDY    47  35  63 W9        29.89R
BUFFALO        CLOUDY    46  31  55 NW23G31   29.88R
GILLETTE       CLOUDY    44  41  89 NW13      29.84R
HULETT         LGT RAIN  45  43  93 N8G17     29.83R
NEWCASTLE      LGT RAIN  45  43  93 NW13G22   29.78R

$$
WYZ014>020-022>026-101>103-070400-
CENTRAL WYOMING

CITY           SKY/WX    TMP DP  RH WIND       PRES   REMARKS
BIG PINEY      RAIN      44  39  82 E13G22    29.82R
PINEDALE       LGT RAIN  43  39  87 CALM      29.83R
DUBOIS         LGT RAIN  37  34  87 SE20      29.85R WCI  27
LANDER         LGT RAIN  44  42  93 E9        29.85R
RIVERTON       LGT RAIN  45  38  76 NE10      29.86R
CASPER         LGT RAIN  41  38  89 NE12      29.88R
DOUGLAS        LGT RAIN  43  41  93 NW14G21   29.86R

$$
WYZ021-027>030-104>119-070400-
SOUTHERN WYOMING

CITY           SKY/WX    TMP DP  RH WIND       PRES   REMARKS
EVANSTON       CLOUDY    43  43 100 E5        29.80S
KEMMERER       DRIZZLE   41  39  93 W9        29.81F
FORT BRIDGER   LGT RAIN  45  45 100 W5        29.82F
ROCK SPRINGS   LGT RAIN  43  41  93 NE12      29.83R FOG
DIXON          DRIZZLE   46  43  91 NE5       29.87R
RAWLINS        LGT RAIN  41  38  89 NE12      29.87R
SARATOGA       CLOUDY    41  41 100 NW8       29.87R
LARAMIE        RAIN      42  40  92 N17       29.82R
CHEYENNE       LGT RAIN  45  42  89 N15       29.82R
TORRINGTON     CLOUDY    50  43  77 NW21G32   29.76R
PINE BLUFFS    CLOUDY    48  45  87 NW23      29.78R

$$


USA.gov is the U.S. government's official web portal to all federal, state and local government web resources and services.